QPF
0.00 0.00 0.01 0.01 0.01 0.00 0.00 0.00 0.00 0.00 0.00 0.00 0.01 0.01 0.02 0.02 0.02 0.03 0.03 0.03 0.03 0.03 0.03 0.02 0.02 0.02 0.02 0.02 0.02 0.02 0.02 0.02 0.02 0.02 0.02 0.02 0.02 0.02 0.00 0.00 0.00 0.00 0.00
0.00 0.00 0.00 0.00 0.00 0.00 0.00 0.00 0.00 0.00 0.00 0.00 0.00 0.00 0.01 0.01 0.01 0.02 0.02 0.02 0.02 0.02 0.02 0.03 0.03 0.02 0.02 0.02 0.02 0.02 0.02 0.02 0.03 0.03 0.03 0.01 0.02 0.02 0.01 0.00 0.00 0.01 0.01
0.00 0.00 0.00 0.00 0.00 0.00 0.00 0.00 0.00 0.00 0.00 0.00 0.00 0.00 0.00 0.00 0.00 0.01 0.01 0.01 0.01 0.01 0.02 0.02 0.02 0.02 0.02 0.02 0.01 0.01 0.02 0.02 0.03 0.04 0.04 0.01 0.00 0.02 0.02 0.02 0.01 0.02 0.04
0.00 0.00 0.00 0.00 0.00 0.00 0.00 0.00 0.00 0.00 0.00 0.00 0.00 0.00 0.00 0.00 0.00 0.00 0.00 0.00 0.00 0.01 0.01 0.01 0.01 0.01 0.01 0.01 0.01 0.01 0.01 0.02 0.02 0.04 0.02 0.01 0.00 0.01 0.03 0.04 0.01 0.02 0.05
0.00 0.00 0.00 0.00 0.00 0.00 0.00 0.00 0.00 0.00 0.00 0.00 0.00 0.00 0.00 0.00 0.00 0.00 0.00 0.00 0.00 0.00 0.00 0.00 0.01 0.01 0.01 0.01 0.01 0.01 0.01 0.01 0.02 0.02 0.01 0.00 0.00 0.01 0.03 0.05 0.04 0.02 0.04
0.00 0.00 0.00 0.00 0.00 0.00 0.00 0.00 0.00 0.00 0.00 0.00 0.00 0.00 0.00 0.00 0.00 0.00 0.00 0.00 0.00 0.00 0.00 0.00 0.00 0.00 0.00 0.01 0.01 0.01 0.01 0.01 0.01 0.00 0.00 0.00 0.00 0.00 0.03 0.08 0.08 0.04 0.03
0.00 0.00 0.00 0.00 0.00 0.00 0.00 0.00 0.00 0.00 0.00 0.00 0.00 0.00 0.00 0.00 0.00 0.00 0.00 0.00 0.00 0.00 0.00 0.00 0.00 0.00 0.00 0.00 0.00 0.01 0.01 0.01 0.00 0.00 0.00 0.00 0.00 0.00 0.04 0.11 0.11 0.08 0.05
0.00 0.00 0.00 0.00 0.00 0.00 0.00 0.00 0.00 0.00 0.00 0.00 0.00 0.00 0.00 0.00 0.00 0.00 0.00 0.00 0.00 0.00 0.00 0.00 0.00 0.00 0.00 0.00 0.00 0.00 0.00 0.00 0.00 0.00 0.00 0.00 0.00 0.01 0.06 0.12 0.15 0.13 0.09
0.00 0.00 0.00 0.00 0.00 0.00 0.00 0.00 0.00 0.00 0.00 0.00 0.00 0.00 0.00 0.00 0.00 0.00 0.00 0.00 0.00 0.00 0.00 0.00 0.00 0.00 0.00 0.00 0.00 0.00 0.00 0.00 0.00 0.00 0.00 0.00 0.00 0.02 0.07 0.12 0.16 0.17 0.14
0.00 0.00 0.00 0.00 0.00 0.00 0.00 0.00 0.00 0.00 0.00 0.00 0.00 0.00 0.00 0.00 0.00 0.00 0.00 0.00 0.00 0.00 0.00 0.00 0.00 0.00 0.00 0.00 0.00 0.00 0.00 0.00 0.00 0.00 0.00 0.00 0.00 0.02 0.06 0.11 0.16 0.19 0.20
0.00 0.00 0.00 0.00 0.00 0.00 0.00 0.00 0.00 0.00 0.00 0.00 0.00 0.00 0.00 0.00 0.00 0.00 0.00 0.00 0.00 0.00 0.00 0.00 0.00 0.00 0.00 0.00 0.00 0.00 0.00 0.00 0.00 0.00 0.00 0.00 0.00 0.02 0.05 0.09 0.14 0.19 0.22
0.00 0.00 0.00 0.00 0.00 0.00 0.00 0.00 0.00 0.00 0.00 0.00 0.00 0.00 0.00 0.00 0.00 0.00 0.00 0.00 0.00 0.00 0.00 0.00 0.00 0.00 0.00 0.00 0.00 0.00 0.00 0.00 0.00 0.00 0.00 0.00 0.00 0.01 0.04 0.07 0.10 0.15 0.20
0.00 0.00 0.00 0.00 0.00 0.00 0.00 0.00 0.00 0.00 0.00 0.00 0.00 0.00 0.00 0.00 0.00 0.00 0.00 0.00 0.00 0.00 0.00 0.00 0.00 0.00 0.00 0.00 0.00 0.00 0.00 0.00 0.00 0.00 0.00 0.00 0.00 0.00 0.02 0.04 0.07 0.12 0.18
0.00 0.00 0.00 0.00 0.00 0.00 0.00 0.00 0.00 0.00 0.00 0.00 0.00 0.00 0.00 0.00 0.00 0.00 0.00 0.00 0.00 0.00 0.00 0.00 0.00 0.00 0.00 0.00 0.00 0.00 0.00 0.00 0.00 0.00 0.00 0.00 0.00 0.00 0.01 0.02 0.05 0.09 0.16
0.00 0.00 0.00 0.00 0.00 0.00 0.00 0.00 0.00 0.00 0.00 0.00 0.00 0.00 0.00 0.00 0.00 0.00 0.00 0.00 0.00 0.00 0.00 0.00 0.00 0.00 0.00 0.00 0.00 0.00 0.00 0.00 0.00 0.00 0.00 0.00 0.00 0.00 0.00 0.01 0.03 0.09 0.15
0.00 0.00 0.00 0.00 0.00 0.00 0.00 0.00 0.00 0.00 0.00 0.00 0.00 0.00 0.00 0.00 0.00 0.00 0.00 0.00 0.00 0.00 0.00 0.00 0.00 0.00 0.00 0.00 0.00 0.00 0.00 0.00 0.00 0.00 0.00 0.00 0.00 0.00 0.00 0.01 0.02 0.07 0.14
0.00 0.00 0.00 0.00 0.00 0.00 0.00 0.00 0.00 0.00 0.00 0.00 0.00 0.00 0.00 0.00 0.00 0.00 0.00 0.00 0.00 0.00 0.00 0.00 0.00 0.00 0.00 0.00 0.00 0.00 0.00 0.00 0.00 0.00 0.00 0.00 0.00 0.00 0.01 0.01 0.02 0.04 0.09
0.00 0.00 0.00 0.00 0.00 0.00 0.00 0.00 0.00 0.00 0.00 0.00 0.00 0.00 0.00 0.00 0.00 0.00 0.00 0.00 0.00 0.00 0.00 0.00 0.00 0.00 0.00 0.00 0.00 0.00 0.00 0.00 0.00 0.00 0.00 0.00 0.00 0.00 0.01 0.02 0.02 0.03 0.05
0.00 0.00 0.00 0.00 0.00 0.00 0.00 0.00 0.00 0.00 0.00 0.00 0.00 0.00 0.00 0.00 0.00 0.00 0.00 0.00 0.00 0.00 0.00 0.00 0.00 0.00 0.00 0.00 0.00 0.00 0.00 0.00 0.00 0.00 0.00 0.00 0.00 0.00 0.00 0.01 0.03 0.03 0.04
0.00 0.00 0.00 0.00 0.00 0.00 0.00 0.00 0.00 0.00 0.00 0.00 0.00 0.00 0.00 0.00 0.00 0.00 0.00 0.00 0.00 0.00 0.00 0.00 0.00 0.00 0.00 0.00 0.00 0.00 0.00 0.00 0.00 0.00 0.00 0.01 0.01 0.01 0.01 0.01 0.02 0.05 0.05
0.00 0.00 0.00 0.00 0.00 0.00 0.00 0.00 0.00 0.00 0.00 0.00 0.00 0.00 0.00 0.00 0.00 0.00 0.00 0.00 0.00 0.00 0.00 0.00 0.00 0.00 0.00 0.00 0.00 0.00 0.00 0.00 0.00 0.00 0.00 0.00 0.01 0.01 0.01 0.01 0.02 0.03 0.06
0.00 0.00 0.00 0.00 0.00 0.00 0.00 0.00 0.00 0.00 0.00 0.00 0.00 0.00 0.00 0.00 0.00 0.00 0.00 0.00 0.00 0.00 0.00 0.00 0.00 0.00 0.00 0.00 0.00 0.01 0.01 0.00 0.00 0.00 0.00 0.00 0.00 0.01 0.02 0.02 0.02 0.02 0.04
0.00 0.00 0.00 0.00 0.00 0.00 0.00 0.00 0.00 0.00 0.00 0.00 0.00 0.00 0.00 0.00 0.00 0.00 0.00 0.00 0.00 0.00 0.00 0.00 0.00 0.00 0.00 0.00 0.00 0.03 0.06 0.04 0.01 0.00 0.00 0.00 0.00 0.01 0.01 0.02 0.02 0.02 0.03
0.00 0.00 0.00 0.00 0.00 0.00 0.00 0.00 0.00 0.00 0.00 0.00 0.00 0.00 0.00 0.00 0.00 0.00 0.00 0.00 0.00 0.00 0.00 0.00 0.00 0.00 0.00 0.00 0.00 0.01 0.04 0.05 0.06 0.03 0.00 0.00 0.00 0.00 0.01 0.02 0.02 0.03 0.04
0.00 0.00 0.00 0.00 0.00 0.00 0.00 0.00 0.00 0.00 0.00 0.00 0.00 0.00 0.00 0.00 0.00 0.00 0.00 0.00 0.00 0.00 0.00 0.00 0.00 0.00 0.00 0.00 0.00 0.01 0.01 0.01 0.03 0.05 0.02 0.00 0.00 0.00 0.00 0.01 0.01 0.03 0.04
0.00 0.00 0.00 0.00 0.00 0.00 0.00 0.00 0.00 0.00 0.00 0.00 0.00 0.00 0.00 0.00 0.00 0.00 0.00 0.00 0.00 0.00 0.00 0.00 0.00 0.00 0.00 0.00 0.00 0.01 0.01 0.02 0.03 0.05 0.04 0.01 0.00 0.00 0.00 0.01 0.01 0.02 0.03
MSLP
1031.17 1030.45 1029.52 1028.50 1027.55 1026.75 1026.15 1025.72 1025.41 1025.13 1024.80 1024.38 1023.88 1023.33 1022.79 1022.31 1021.90 1021.57 1021.29 1021.00 1020.67 1020.28 1019.81 1019.30 1018.79 1018.30 1017.87 1017.50 1017.18 1016.90 1016.62 1016.35 1016.10 1015.87 1015.70 1015.59 1015.54 1015.54 1015.56 1015.56 1015.52 1015.43 1015.32
1031.84 1031.03 1030.03 1028.98 1028.02 1027.24 1026.67 1026.27 1025.98 1025.72 1025.41 1025.02 1024.55 1024.05 1023.55 1023.10 1022.71 1022.39 1022.08 1021.76 1021.37 1020.91 1020.39 1019.82 1019.25 1018.71 1018.22 1017.79 1017.39 1017.02 1016.66 1016.31 1015.98 1015.71 1015.51 1015.40 1015.38 1015.41 1015.46 1015.50 1015.48 1015.40 1015.29
1032.43 1031.54 1030.48 1029.41 1028.46 1027.71 1027.17 1026.81 1026.55 1026.31 1026.02 1025.66 1025.22 1024.75 1024.29 1023.87 1023.49 1023.15 1022.81 1022.42 1021.97 1021.44 1020.85 1020.23 1019.61 1019.04 1018.51 1018.04 1017.60 1017.17 1016.75 1016.33 1015.94 1015.62 1015.38 1015.25 1015.22 1015.25 1015.32 1015.37 1015.37 1015.31 1015.21
1032.89 1031.95 1030.88 1029.83 1028.91 1028.21 1027.71 1027.38 1027.14 1026.91 1026.63 1026.28 1025.86 1025.42 1024.98 1024.56 1024.18 1023.82 1023.42 1022.97 1022.45 1021.85 1021.20 1020.54 1019.90 1019.31 1018.78 1018.30 1017.84 1017.39 1016.93 1016.46 1016.02 1015.63 1015.34 1015.15 1015.08 1015.08 1015.13 1015.18 1015.18 1015.14 1015.06
1033.24 1032.29 1031.25 1030.25 1029.41 1028.76 1028.31 1028.01 1027.77 1027.52 1027.23 1026.87 1026.45 1026.01 1025.58 1025.17 1024.78 1024.38 1023.94 1023.43 1022.84 1022.19 1021.50 1020.81 1020.16 1019.58 1019.07 1018.60 1018.15 1017.70 1017.22 1016.72 1016.22 1015.77 1015.40 1015.13 1014.97 1014.91 1014.90 1014.91 1014.91 1014.88 1014.83
1033.49 1032.58 1031.61 1030.71 1029.97 1029.41 1029.00 1028.71 1028.45 1028.18 1027.84 1027.45 1027.01 1026.56 1026.12 1025.70 1025.30 1024.88 1024.40 1023.85 1023.22 1022.52 1021.80 1021.10 1020.46 1019.90 1019.42 1018.98 1018.55 1018.11 1017.62 1017.09 1016.54 1016.01 1015.55 1015.17 1014.90 1014.73 1014.63 1014.58 1014.55 1014.52 1014.50
1033.67 1032.85 1032.00 1031.24 1030.62 1030.14 1029.79 1029.49 1029.20 1028.87 1028.48 1028.03 1027.56 1027.08 1026.64 1026.22 1025.80 1025.37 1024.87 1024.29 1023.63 1022.91 1022.18 1021.48 1020.86 1020.31 1019.85 1019.44 1019.03 1018.59 1018.09 1017.53 1016.93 1016.33 1015.77 1015.27 1014.87 1014.57 1014.35 1014.21 1014.13 1014.09 1014.09
1033.84 1033.13 1032.44 1031.83 1031.34 1030.95 1030.64 1030.34 1030.01 1029.61 1029.15 1028.65 1028.14 1027.64 1027.19 1026.77 1026.35 1025.90 1025.39 1024.79 1024.12 1023.39 1022.66 1021.96 1021.34 1020.81 1020.35 1019.95 1019.54 1019.09 1018.58 1017.99 1017.35 1016.67 1016.01 1015.40 1014.87 1014.43 1014.08 1013.83 1013.67 1013.60 1013.61
1034.02 1033.45 1032.92 1032.47 1032.10 1031.80 1031.52 1031.21 1030.83 1030.38 1029.86 1029.31 1028.77 1028.27 1027.81 1027.38 1026.96 1026.51 1025.98 1025.38 1024.69 1023.96 1023.22 1022.52 1021.89 1021.35 1020.88 1020.46 1020.03 1019.56 1019.03 1018.41 1017.73 1017.00 1016.26 1015.55 1014.90 1014.32 1013.85 1013.48 1013.23 1013.10 1013.09
1034.23 1033.80 1033.43 1033.12 1032.87 1032.63 1032.37 1032.04 1031.63 1031.13 1030.58 1030.00 1029.45 1028.95 1028.49 1028.06 1027.63 1027.16 1026.62 1026.00 1025.30 1024.55 1023.81 1023.10 1022.45 1021.89 1021.39 1020.92 1020.45 1019.95 1019.38 1018.73 1018.02 1017.26 1016.48 1015.70 1014.96 1014.28 1013.68 1013.19 1012.84 1012.63 1012.57
1034.47 1034.18 1033.94 1033.75 1033.58 1033.39 1033.13 1032.78 1032.34 1031.82 1031.25 1030.68 1030.14 1029.65 1029.19 1028.76 1028.32 1027.83 1027.26 1026.60 1025.88 1025.12 1024.36 1023.63 1022.97 1022.36 1021.81 1021.29 1020.76 1020.21 1019.60 1018.93 1018.21 1017.44 1016.64 1015.83 1015.04 1014.28 1013.59 1012.99 1012.52 1012.20 1012.06
1034.75 1034.57 1034.43 1034.32 1034.19 1034.01 1033.74 1033.37 1032.91 1032.39 1031.83 1031.29 1030.78 1030.31 1029.87 1029.43 1028.96 1028.43 1027.82 1027.13 1026.38 1025.61 1024.83 1024.09 1023.40 1022.75 1022.15 1021.56 1020.96 1020.35 1019.69 1019.00 1018.27 1017.52 1016.73 1015.93 1015.12 1014.31 1013.55 1012.85 1012.27 1011.84 1011.59
1035.04 1034.95 1034.88 1034.81 1034.68 1034.47 1034.17 1033.78 1033.31 1032.79 1032.27 1031.78 1031.32 1030.88 1030.46 1030.01 1029.51 1028.93 1028.28 1027.55 1026.78 1025.99 1025.21 1024.46 1023.75 1023.07 1022.40 1021.74 1021.06 1020.37 1019.67 1018.95 1018.22 1017.48 1016.73 1015.95 1015.15 1014.34 1013.52 1012.75 1012.06 1011.51 1011.15
1035.34 1035.32 1035.28 1035.19 1035.03 1034.78 1034.42 1033.99 1033.52 1033.03 1032.56 1032.12 1031.71 1031.32 1030.91 1030.45 1029.92 1029.30 1028.60 1027.85 1027.06 1026.27 1025.50 1024.76 1024.03 1023.32 1022.59 1021.85 1021.09 1020.32 1019.54 1018.78 1018.04 1017.32 1016.60 1015.87 1015.10 1014.30 1013.47 1012.63 1011.86 1011.20 1010.71
1035.64 1035.65 1035.61 1035.49 1035.26 1034.94 1034.53 1034.06 1033.58 1033.11 1032.69 1032.32 1031.97 1031.61 1031.22 1030.75 1030.19 1029.54 1028.82 1028.05 1027.27 1026.50 1025.75 1025.02 1024.29 1023.55 1022.77 1021.94 1021.08 1020.21 1019.35 1018.52 1017.75 1017.03 1016.34 1015.65 1014.93 1014.15 1013.32 1012.46 1011.62 1010.87 1010.27
1035.92 1035.94 1035.88 1035.70 1035.40 1035.00 1034.53 1034.03 1033.54 1033.10 1032.73 1032.40 1032.10 1031.78 1031.39 1030.92 1030.34 1029.68 1028.95 1028.19 1027.43 1026.69 1025.98 1025.28 1024.56 1023.79 1022.94 1022.03 1021.06 1020.07 1019.10 1018.20 1017.37 1016.63 1015.95 1015.29 1014.60 1013.86 1013.05 1012.18 1011.31 1010.49 1009.80
1036.16 1036.19 1036.09 1035.86 1035.49 1035.03 1034.51 1033.98 1033.49 1033.07 1032.73 1032.44 1032.17 1031.86 1031.48 1031.00 1030.42 1029.75 1029.03 1028.30 1027.58 1026.90 1026.23 1025.56 1024.84 1024.04 1023.13 1022.12 1021.04 1019.93 1018.85 1017.84 1016.94 1016.15 1015.46 1014.81 1014.16 1013.45 1012.67 1011.82 1010.93 1010.08 1009.34
1036.37 1036.38 1036.25 1035.97 1035.56 1035.06 1034.51 1033.97 1033.49 1033.09 1032.76 1032.48 1032.22 1031.91 1031.51 1031.02 1030.44 1029.78 1029.09 1028.40 1027.74 1027.11 1026.49 1025.85 1025.13 1024.30 1023.33 1022.23 1021.04 1019.81 1018.61 1017.50 1016.52 1015.68 1014.95 1014.30 1013.66 1012.98 1012.23 1011.41 1010.54 1009.67 1008.89
1036.51 1036.51 1036.36 1036.06 1035.63 1035.12 1034.57 1034.05 1033.58 1033.19 1032.86 1032.58 1032.29 1031.95 1031.53 1031.02 1030.43 1029.79 1029.13 1028.49 1027.88 1027.31 1026.73 1026.11 1025.39 1024.54 1023.52 1022.35 1021.07 1019.75 1018.46 1017.25 1016.19 1015.29 1014.52 1013.85 1013.21 1012.55 1011.83 1011.03 1010.18 1009.32 1008.52
1036.59 1036.58 1036.42 1036.12 1035.71 1035.23 1034.71 1034.22 1033.77 1033.39 1033.05 1032.73 1032.39 1032.00 1031.54 1031.00 1030.40 1029.77 1029.14 1028.55 1027.99 1027.46 1026.92 1026.32 1025.60 1024.73 1023.68 1022.48 1021.15 1019.78 1018.42 1017.16 1016.04 1015.08 1014.27 1013.57 1012.91 1012.25 1011.54 1010.77 1009.94 1009.09 1008.28
1036.61 1036.59 1036.44 1036.16 1035.79 1035.37 1034.91 1034.47 1034.05 1033.67 1033.30 1032.93 1032.52 1032.06 1031.53 1030.95 1030.33 1029.71 1029.11 1028.55 1028.03 1027.54 1027.03 1026.44 1025.74 1024.87 1023.83 1022.62 1021.30 1019.92 1018.56 1017.28 1016.13 1015.14 1014.28 1013.54 1012.85 1012.16 1011.45 1010.68 1009.87 1009.03 1008.20
1036.59 1036.56 1036.42 1036.19 1035.88 1035.52 1035.14 1034.75 1034.37 1033.98 1033.57 1033.13 1032.64 1032.10 1031.50 1030.87 1030.22 1029.59 1029.01 1028.47 1027.99 1027.52 1027.03 1026.47 1025.78 1024.95 1023.94 1022.79 1021.52 1020.20 1018.89 1017.64 1016.50 1015.48 1014.59 1013.79 1013.05 1012.32 1011.58 1010.79 1009.98 1009.13 1008.30
1036.56 1036.52 1036.39 1036.19 1035.95 1035.67 1035.36 1035.03 1034.67 1034.27 1033.82 1033.31 1032.74 1032.10 1031.43 1030.74 1030.07 1029.43 1028.85 1028.33 1027.86 1027.41 1026.93 1026.39 1025.74 1024.96 1024.03 1022.97 1021.82 1020.61 1019.39 1018.21 1017.10 1016.08 1015.15 1014.29 1013.48 1012.69 1011.89 1011.08 1010.24 1009.39 1008.55
1036.56 1036.50 1036.38 1036.21 1036.01 1035.79 1035.54 1035.26 1034.91 1034.50 1034.01 1033.43 1032.78 1032.07 1031.33 1030.59 1029.89 1029.24 1028.65 1028.14 1027.67 1027.22 1026.75 1026.23 1025.62 1024.91 1024.08 1023.15 1022.14 1021.07 1019.98 1018.90 1017.84 1016.83 1015.86 1014.94 1014.04 1013.17 1012.31 1011.45 1010.58 1009.73 1008.88
1036.62 1036.54 1036.41 1036.25 1036.08 1035.89 1035.68 1035.41 1035.07 1034.64 1034.11 1033.48 1032.76 1031.99 1031.21 1030.43 1029.71 1029.04 1028.45 1027.92 1027.43 1026.97 1026.49 1025.98 1025.41 1024.76 1024.04 1023.25 1022.39 1021.48 1020.54 1019.56 1018.57 1017.56 1016.57 1015.57 1014.60 1013.64 1012.71 1011.80 1010.91 1010.06 1009.23
1036.76 1036.65 1036.49 1036.32 1036.15 1035.97 1035.76 1035.50 1035.15 1034.70 1034.13 1033.46 1032.70 1031.90 1031.08 1030.29 1029.55 1028.87 1028.26 1027.70 1027.18 1026.67 1026.17 1025.64 1025.09 1024.50 1023.88 1023.21 1022.50 1021.74 1020.93 1020.05 1019.12 1018.14 1017.11 1016.06 1015.00 1013.97 1012.98 1012.03 1011.15 1010.31 1009.51
Thickness
5605 5611 5618 5623 5628 5631 5635 5638 5640 5643 5645 5647 5649 5652 5654 5657 5659 5662 5665 5669 5672 5676 5681 5685 5690 5694 5698 5702 5705 5708 5710 5713 5714 5716 5718 5719 5722 5723 5725 5726 5728 5729 5731
5600 5606 5613 5618 5622 5625 5628 5630 5632 5634 5636 5638 5640 5642 5644 5646 5648 5651 5653 5656 5660 5664 5668 5673 5677 5682 5687 5692 5696 5700 5704 5707 5710 5712 5713 5715 5717 5719 5721 5723 5724 5726 5728
5598 5603 5608 5612 5615 5618 5621 5623 5625 5626 5628 5629 5630 5632 5634 5635 5637 5640 5642 5645 5648 5651 5655 5660 5664 5669 5674 5679 5685 5690 5695 5700 5703 5706 5708 5711 5713 5715 5718 5719 5721 5723 5724
5593 5598 5602 5606 5609 5611 5613 5615 5616 5617 5618 5619 5620 5621 5623 5624 5626 5628 5630 5633 5636 5640 5644 5648 5652 5656 5661 5666 5672 5678 5684 5690 5695 5699 5703 5706 5708 5711 5714 5716 5717 5719 5721
5590 5593 5596 5599 5601 5603 5604 5605 5606 5607 5607 5608 5609 5610 5611 5612 5613 5616 5618 5620 5624 5627 5631 5635 5639 5644 5648 5653 5659 5665 5672 5678 5684 5690 5695 5699 5702 5705 5709 5711 5713 5715 5717
5586 5587 5589 5591 5592 5593 5594 5594 5594 5595 5595 5596 5596 5596 5597 5598 5599 5601 5603 5606 5609 5613 5617 5621 5625 5630 5635 5640 5646 5652 5658 5665 5672 5679 5685 5690 5695 5699 5703 5706 5709 5711 5713
5580 5580 5580 5581 5582 5582 5582 5582 5582 5582 5582 5582 5581 5581 5581 5582 5583 5585 5586 5589 5593 5597 5601 5605 5610 5615 5621 5626 5632 5638 5645 5651 5658 5665 5673 5680 5685 5691 5696 5701 5704 5707 5709
5573 5571 5571 5571 5571 5571 5570 5570 5569 5568 5567 5566 5565 5564 5564 5564 5564 5566 5567 5570 5574 5578 5583 5587 5592 5598 5604 5610 5616 5623 5630 5637 5645 5651 5659 5667 5675 5682 5688 5694 5698 5702 5705
5565 5563 5562 5560 5559 5558 5557 5556 5554 5553 5551 5549 5547 5546 5545 5544 5544 5546 5546 5549 5553 5556 5561 5566 5572 5578 5585 5592 5598 5606 5614 5622 5629 5636 5645 5654 5662 5671 5679 5686 5691 5696 5700
5558 5555 5552 5550 5548 5546 5543 5540 5537 5535 5533 5530 5528 5526 5524 5523 5522 5523 5524 5527 5530 5533 5537 5542 5548 5556 5564 5570 5578 5586 5596 5605 5612 5621 5630 5639 5648 5658 5668 5676 5683 5689 5694
5551 5547 5542 5539 5536 5533 5530 5525 5521 5518 5514 5510 5507 5504 5502 5500 5500 5500 5500 5502 5505 5508 5511 5516 5523 5530 5538 5546 5555 5565 5574 5583 5592 5604 5614 5624 5634 5644 5655 5665 5673 5680 5687
5541 5536 5531 5527 5524 5520 5516 5512 5507 5502 5497 5492 5487 5484 5480 5478 5475 5474 5474 5475 5477 5480 5483 5488 5494 5502 5510 5519 5529 5539 5550 5560 5572 5584 5596 5607 5618 5629 5641 5652 5662 5670 5678
5530 5525 5520 5515 5511 5507 5503 5498 5491 5485 5479 5473 5467 5462 5457 5454 5450 5448 5447 5446 5447 5449 5452 5457 5463 5471 5480 5489 5501 5512 5524 5536 5549 5562 5576 5588 5601 5613 5626 5638 5649 5660 5669
5520 5515 5509 5503 5499 5494 5488 5481 5473 5466 5459 5451 5444 5438 5433 5427 5423 5419 5417 5415 5414 5415 5419 5424 5430 5438 5448 5459 5471 5484 5497 5510 5524 5539 5555 5569 5583 5596 5610 5623 5636 5648 5659
5511 5505 5499 5492 5487 5480 5472 5463 5454 5445 5436 5427 5419 5411 5404 5398 5393 5389 5385 5383 5381 5381 5384 5389 5396 5405 5415 5426 5439 5453 5468 5482 5498 5514 5532 5547 5563 5578 5593 5608 5622 5635 5647
5501 5494 5488 5480 5472 5463 5454 5444 5433 5422 5412 5402 5392 5384 5375 5368 5363 5358 5355 5353 5351 5350 5352 5356 5362 5371 5381 5392 5406 5420 5437 5454 5472 5488 5506 5525 5542 5559 5575 5591 5607 5622 5635
5491 5483 5475 5466 5455 5445 5434 5422 5410 5399 5388 5378 5368 5358 5350 5342 5337 5332 5328 5326 5324 5324 5326 5329 5335 5341 5351 5362 5375 5389 5406 5425 5442 5461 5480 5500 5519 5538 5556 5573 5590 5606 5621
5479 5469 5459 5449 5438 5427 5414 5401 5389 5377 5366 5355 5345 5337 5328 5321 5314 5310 5306 5303 5300 5300 5301 5304 5309 5315 5323 5333 5347 5362 5378 5396 5414 5433 5453 5474 5494 5514 5534 5553 5571 5589 5605
5466 5455 5444 5433 5422 5410 5396 5383 5370 5358 5346 5335 5325 5317 5309 5302 5296 5290 5286 5282 5280 5279 5278 5280 5284 5288 5298 5308 5322 5339 5354 5370 5388 5406 5426 5446 5468 5489 5511 5531 5551 5570 5588
5453 5441 5430 5419 5407 5394 5381 5368 5354 5341 5329 5318 5308 5300 5292 5285 5279 5273 5269 5264 5262 5260 5260 5261 5263 5268 5273 5284 5299 5316 5332 5349 5366 5382 5400 5420 5440 5463 5485 5507 5528 5549 5568
5441 5429 5417 5406 5393 5380 5366 5353 5340 5327 5316 5304 5294 5284 5276 5269 5264 5259 5254 5250 5247 5245 5244 5245 5247 5252 5255 5263 5276 5295 5317 5331 5348 5361 5377 5394 5414 5435 5459 5482 5504 5526 5546
5429 5417 5405 5392 5378 5363 5349 5335 5322 5311 5301 5290 5279 5270 5262 5255 5250 5246 5241 5237 5234 5232 5231 5231 5232 5236 5240 5242 5250 5267 5292 5311 5324 5339 5353 5372 5390 5409 5432 5455 5479 5502 5524
5418 5405 5392 5378 5363 5349 5334 5321 5310 5301 5290 5280 5271 5261 5252 5244 5238 5232 5228 5225 5222 5220 5219 5218 5220 5222 5226 5228 5231 5239 5257 5278 5292 5318 5333 5350 5366 5385 5406 5430 5454 5478 5501
5407 5393 5378 5364 5349 5334 5320 5308 5295 5286 5276 5266 5257 5250 5242 5233 5227 5221 5216 5213 5210 5207 5206 5206 5208 5208 5212 5216 5219 5224 5232 5244 5263 5291 5312 5328 5345 5363 5383 5405 5429 5454 5478
5397 5382 5366 5351 5336 5322 5308 5295 5284 5272 5262 5255 5247 5240 5233 5225 5217 5211 5205 5201 5197 5194 5193 5193 5195 5196 5199 5203 5207 5213 5220 5230 5244 5262 5288 5309 5326 5343 5362 5383 5406 5431 5455
5386 5370 5355 5339 5325 5311 5298 5286 5275 5264 5255 5247 5239 5232 5225 5217 5209 5201 5194 5188 5183 5180 5179 5179 5181 5183 5187 5191 5196 5202 5209 5218 5230 5245 5266 5286 5306 5326 5345 5365 5387 5409 5433